Flag for France Weather past 2 weeks in Rouen, France

Now
48 °F

Mostly cloudy.


Feels Like: 48 °F
Forecast: 45 / 62 °F
Wind: 1 mph from West

Location: Rouen Airport


UV Index: 0 (Low)

Visibility: N/A


Pressure: 30.09 "Hg

Humidity: 94%

Dew point: 46 °F

Location of RouenLocation

Historic Weather in Rouen

°F

Rouen temperature yesterday

Maximum temperature yesterday: 64 °F (at 2:30 PM)
Minimum temperature yesterday: 41 °F (at 7:00 AM)
Average temperature yesterday: 53 °F

Past Weeks' High & Low Weather Summary

 TemperatureHumidityPressure
High68 °F (Apr 17, 4:00 PM)100% (Apr 9, 7:00 AM)30.36 "Hg (Apr 9, 7:00 AM)
Low36 °F (Apr 9, 7:00 AM)30% (Apr 17, 4:00 PM)29.59 "Hg (Apr 20, 2:00 PM)
Average50 °F71%30.07 "Hg
* Reported Apr 9 6:00 AM — Apr 24 6:00 AM, Rouen, Weather by CustomWeather, © 2014

Note: Actual official high and low records may vary slightly from our data, if they occured in-between our weather recording intervals... More about our weather records

Advertising

Historic Weather Conditions — Data for Previous 24 hours

 ConditionsComfort  
Time TempWeatherWind HumidityBarometerVisibility
6:00 AM
Apr 24
50 °FMostly cloudy.No wind88%30.09 "HgN/A
5:30 AM50 °FMostly cloudy.1 mph88%30.09 "HgN/A
5:00 AM50 °FMostly cloudy.2 mph88%30.09 "HgN/A
4:30 AM50 °FMostly cloudy.3 mph88%30.09 "HgN/A
4:00 AM50 °FOvercast.3 mph88%30.09 "HgN/A
3:30 AM50 °FMostly cloudy.3 mph88%30.12 "HgN/A
3:00 AM50 °FOvercast.3 mph88%30.12 "HgN/A
2:30 AM50 °FClear.3 mph88%30.12 "HgN/A
2:00 AM50 °FClear.5 mph88%30.12 "HgN/A
1:30 AM50 °FLight rain. Clear.3 mph88%30.12 "HgN/A
1:00 AM50 °FLight rain. Clear.No wind88%30.12 "HgN/A
12:30 AM52 °FClear.3 mph82%30.12 "HgN/A
12:00 AM52 °FClear.5 mph82%30.12 "HgN/A
11:30 PM
Apr 23
52 °FClear.3 mph82%30.12 "HgN/A
11:00 PM52 °FClear.5 mph82%30.12 "HgN/A
10:30 PM52 °FClear.3 mph82%30.12 "HgN/A
10:00 PM52 °FClear.3 mph82%30.12 "HgN/A
9:30 PM54 °FClear.3 mph77%30.12 "HgN/A
9:00 PM54 °FClear.5 mph82%30.09 "HgN/A
8:30 PM54 °FMostly cloudy.3 mph82%30.09 "HgN/A
8:00 PM55 °FClear.5 mph77%30.09 "HgN/A
7:30 PM55 °FLight rain. Clear.6 mph77%30.09 "HgN/A
7:00 PM57 °FClear.9 mph67%30.09 "HgN/A
6:30 PM61 °FClear.9 mph55%30.07 "HgN/A
6:00 PM61 °FClear.8 mph55%30.07 "HgN/A
5:30 PM63 °FBroken clouds.6 mph56%30.07 "HgN/A
5:00 PM63 °FPartly sunny.No wind56%30.07 "HgN/A
4:30 PM63 °FMostly cloudy.2 mph52%30.07 "HgN/A
4:00 PM63 °FScattered clouds.2 mph52%30.07 "HgN/A
3:30 PM64 °FMild.5 mph52%30.07 "HgN/A
3:00 PM64 °FMild.5 mph52%30.07 "HgN/A
2:30 PM64 °FScattered clouds.6 mph56%30.07 "HgN/A
2:00 PM63 °FScattered clouds.6 mph59%30.07 "HgN/A
1:30 PM61 °FPartly sunny.3 mph63%30.09 "HgN/A
1:00 PM61 °FPassing clouds.5 mph63%30.09 "HgN/A
12:30 PM59 °FClear.7 mph72%30.09 "HgN/A
12:00 PM57 °FClear.6 mph77%30.09 "HgN/A
11:30 AM57 °FPartly sunny.6 mph82%30.09 "HgN/A
11:00 AM55 °FFog.6 mph82%30.09 "HgN/A
10:30 AM54 °FPassing clouds.5 mph88%30.09 "Hg6 mi
10:00 AM50 °FLight fog.3 mph94%30.07 "Hg1 mi
9:30 AM50 °FFog.3 mph94%30.07 "Hg0 mi
9:00 AM48 °FFog.5 mph94%30.07 "Hg1 mi
8:30 AM48 °FFog.3 mph94%30.04 "Hg2 mi
8:00 AM45 °FFog.2 mph100%30.04 "Hg1 mi
7:30 AM43 °FLight fog.5 mph93%30.04 "Hg1 mi
7:00 AM41 °FFog.3 mph100%30.04 "Hg0 mi
Weather by CustomWeather, © 2014

See weather overview